Skip Page Navigation
NASA JPL Caltech
NASA Logo - Jet Propulsion Laboratory + View the NASA Portal
+ Near-Earth Object (NEO) Program
Search JPL
JPL Home Earth Solar System Stars & Galaxies Technology
JPL Solar System Dynamics
BODIES ORBITS EPHEMERIDES TOOLS PHYSICAL DATA DISCOVERY FAQ SITE MAP
JPL Small-Body Database Browser
Search: [ help ]  
(1999 SF10)
Classification: Apollo [NEO]          SPK-ID: 3023213
Ephemeris | Orbit Diagram | Orbital Elements | Physical Parameters | Close-Approach Data ]

[ hide orbit diagram ]
Orbit Diagram
Note: Make sure you have Java enabled on your browser to see the applet. This applet is provided as a 3D orbit visualization tool. The applet was implemented using 2-body methods, and hence should not be used for determining accurate long-term trajectories (over several years or decades) or planetary encounter circumstances. For accurate long-term ephemerides, please instead use our Horizons system.
Orbit Viewer

Additional Notes: the orbits shown in the applet are color coded. The planets are white lines, and the asteroid/comet is a blue line. The bright white line indicates the portion of the orbit that is above the ecliptic plane, and the darker portion is below the ecliptic plane. Likewise for the asteroid/comet orbit, the light blue indicates the portion above the ecliptic plane, and the dark blue the portion below the ecliptic plane.

Orbit Viewer applet originally written and kindly provided by Osamu Ajiki (AstroArts), and further modified by Ron Baalke (JPL).


Orbital Elements at Epoch 2456400.5 (2013-Apr-18.0) TDB
Reference: JPL 14 (heliocentric ecliptic J2000)
 Element Value Uncertainty (1-sigma)   Units 
e .2529596594190067 8.1346e-08  
a 1.278276472046624 7.5168e-09 AU
q .9549240910343808 1.0029e-07 AU
i 1.210547474125123 6.3271e-06 deg
node 25.89621285870357 0.00015078 deg
peri 27.90704728400051 0.00015108 deg
M 104.145964230551 2.9103e-05 deg
tp 2456247.787156278038
(2012-Nov-16.28715628)
4.2597e-05 JED
period 527.8805006615792
1.45
4.6563e-06
1.275e-08
d
yr
n .6819725289129286 6.0155e-09 deg/d
Q 1.601628853058868 9.4183e-09 AU
  Orbit Determination Parameters
   # obs. used (total)      56  
   data-arc span      4820 days (13.20 yr)  
   first obs. used      1999-09-30  
   last obs. used      2012-12-10  
   planetary ephem.      DE405  
   SB-pert. ephem.      SB405-CPV-2  
   condition code      0  
   fit RMS      .50026  
   data source      ORB  
   producer      Otto Matic  
   solution date      2013-Jan-02 15:01:04  

Additional Information
 Earth MOID = .00385726 AU 
 T_jup = 5.029 
[ show covariance matrix ]

Ephemeris | Orbit Diagram | Orbital Elements | Physical Parameters | Close-Approach Data ]

Physical Parameter Table
Parameter Symbol Value Units Sigma Reference Notes
absolute magnitude H 24.047 mag 1.0988 10 autocmod 2.5b
rotation period rot_per 0.0411 h n/a Asteroid Lightcurve DataBase (Rev. 2013-May-01) Result based on less than full coverage, so that the period may be wrong by 30 percent or so.
Published Reference List:
[Pravec, P.; Hergenrother, C.; Whiteley, R.; Sarounova, L.; et al. (2000) Icarus 147, 477-486.]

[ show close-approach data ]
Ephemeris | Orbit Diagram | Orbital Elements | Physical Parameters | Close-Approach Data ]
ABOUT SSD CREDITS/AWARDS PRIVACY/COPYRIGHT GLOSSARY LINKS
FirstGov 2013-Jun-18 05:25 UT
(server date/time)  
NASA Home Page
Site Manager:   Donald K. Yeomans
Webmaster  Alan B. Chamberlin